FW6320 Weather Reports


Display with metric or nautical units.
time (UTC)temp
F
wind
direction
speed
MPH
gust
MPH
rain 1hr
in
rain 24hr
in
rain mn
in
humidity
%
barometer
mb
20260504081543 59 0 0.0 0.0 0.00 0.00 0.00 73 1013.0
20260504081018 59 0 0.0 0.0 0.00 0.00 0.00 73 1013.1
20260504080524 59 0 0.0 0.0 0.00 0.00 0.00 73 1013.3
20260504050520 63 0 0.0 0.0 0.00 0.00 0.00 65 1015.3
20260504045519 63 0 0.0 0.0 0.00 0.00 0.00 65 1015.4
20260504045025 63 0 0.0 0.0 0.00 0.00 0.00 65 1015.4
20260504044532 63 0 0.0 0.0 0.00 0.00 0.00 65 1015.4
20260504044021 63 0 0.0 0.0 0.00 0.00 0.00 65 1015.4
20260504043518 63 0 0.0 0.0 0.00 0.00 0.00 64 1015.4
20260504043100 64 0 0.0 2.0 0.00 0.00 0.00 64 1015.5
20260504042521 64 0 0.0 3.0 0.00 0.00 0.00 63 1015.6
20260504042020 64 0 0.0 3.0 0.00 0.00 0.00 62 1015.6
20260504041541 64 116 1.0 3.0 0.00 0.00 0.00 62 1015.6
20260504041020 64 116 0.0 2.0 0.00 0.00 0.00 61 1015.7
20260504040519 65 116 0.0 3.0 0.00 0.00 0.00 61 1015.7
20260504040042 65 130 0.0 3.0 0.00 0.00 0.00 61 1015.7
20260504035520 65 131 1.0 3.0 0.00 0.00 0.00 60 1015.6
20260504035019 65 129 1.0 3.0 0.00 0.00 0.00 60 1015.6
20260504034546 65 0 0.0 3.0 0.00 0.00 0.00 60 1015.7
20260504034017 65 125 1.0 3.0 0.00 0.00 0.00 60 1015.5
20260504033520 65 125 1.0 3.0 0.00 0.00 0.00 60 1015.5
20260504033035 65 134 0.0 2.0 0.00 0.00 0.00 61 1015.5
20260504032519 65 134 0.0 2.0 0.00 0.00 0.00 60 1015.5
20260504032018 65 0 0.0 2.0 0.00 0.00 0.00 60 1015.5
20260504031549 65 0 0.0 2.0 0.00 0.00 0.00 60 1015.5
20260504031018 65 0 0.0 2.0 0.00 0.00 0.00 60 1015.6
20260504030520 65 0 0.0 1.0 0.00 0.00 0.00 59 1015.5
20260504030100 66 0 0.0 0.0 0.00 0.00 0.00 59 1015.4
20260504025517 66 0 0.0 0.0 0.00 0.00 0.00 58 1015.4
20260504025021 66 0 0.0 2.0 0.00 0.00 0.00 58 1015.4
20260504024539 66 0 0.0 2.0 0.00 0.00 0.00 57 1015.4
20260504024019 67 0 0.0 3.0 0.00 0.00 0.00 56 1015.4
20260504023517 68 0 0.0 3.0 0.00 0.00 0.00 55 1015.3
20260504023036 68 0 1.0 4.0 0.00 0.00 0.00 54 1015.3
20260504022517 68 127 1.0 4.0 0.00 0.00 0.00 54 1015.3
20260504022015 68 119 1.0 4.0 0.00 0.00 0.00 54 1015.2
20260504021544 68 108 0.0 3.0 0.00 0.00 0.00 54 1015.3
20260504021017 68 0 0.0 3.0 0.00 0.00 0.00 55 1015.2
20260504020516 68 0 0.0 4.0 0.00 0.00 0.00 54 1015.1
20260504020038 69 0 0.0 4.0 0.00 0.00 0.00 53 1015.2
20260504015518 69 0 0.0 6.0 0.00 0.00 0.00 53 1015.1
20260504015020 69 103 1.0 6.0 0.00 0.00 0.00 53 1015.2
20260504014534 69 111 0.0 4.0 0.00 0.00 0.00 53 1015.2
20260504014017 69 0 0.0 5.0 0.00 0.00 0.00 53 1015.1
20260504013517 69 0 0.0 5.0 0.00 0.00 0.00 54 1015.0
20260504013047 69 0 0.0 3.0 0.00 0.00 0.00 53 1014.9
20260504012518 70 117 0.0 3.0 0.00 0.00 0.00 54 1014.9
20260504012017 70 0 0.0 3.0 0.00 0.00 0.00 53 1014.9
20260504011536 70 137 0.0 2.0 0.00 0.00 0.00 53 1014.8
20260504011021 71 130 0.0 2.0 0.00 0.00 0.00 52 1014.8
20260504010516 71 0 0.0 2.0 0.00 0.00 0.00 52 1014.9
20260504010036 71 0 0.0 3.0 0.00 0.00 0.00 51 1014.7
20260504005517 72 0 0.0 3.0 0.00 0.00 0.00 49 1014.7
20260504005016 72 133 1.0 4.0 0.00 0.00 0.00 48 1014.8
20260504004542 73 130 0.0 6.0 0.00 0.00 0.00 48 1014.8
20260504004019 73 144 1.0 6.0 0.00 0.00 0.00 47 1014.7
20260504003516 74 155 1.0 6.0 0.00 0.00 0.00 47 1014.6
20260504003034 74 146 1.0 6.0 0.00 0.00 0.00 46 1014.7
20260504002516 75 142 1.0 5.0 0.00 0.00 0.00 46 1014.9
20260504002016 76 0 2.0 7.0 0.00 0.00 0.00 45 1014.9
20260504001538 76 144 2.0 7.0 0.00 0.00 0.00 43 1014.9
20260504001015 76 138 2.0 7.0 0.00 0.00 0.00 42 1015.0
20260504000517 77 142 3.0 7.0 0.00 0.00 0.00 42 1015.0
20260504000031 77 140 3.0 8.0 0.00 0.00 0.00 41 1015.0
20260503235519 77 145 4.0 9.0 0.00 0.00 0.00 41 1015.0
20260503235017 77 151 4.0 9.0 0.00 0.00 0.00 41 1015.1
20260503234539 77 136 5.0 10.0 0.00 0.00 0.00 40 1015.1
20260503234017 78 142 4.0 11.0 0.00 0.00 0.00 40 1015.2
20260503233519 78 152 5.0 11.0 0.00 0.00 0.00 41 1015.2
20260503233036 78 151 3.0 10.0 0.00 0.00 0.00 40 1015.3
20260503232518 78 144 5.0 10.0 0.00 0.00 0.00 40 1015.2
20260503232018 78 124 6.0 10.0 0.00 0.00 0.00 40 1015.2
20260503231541 79 153 3.0 10.0 0.00 0.00 0.00 41 1015.3
20260503231018 78 123 5.0 12.0 0.00 0.00 0.00 40 1015.4
20260503230519 78 144 6.0 12.0 0.00 0.00 0.00 40 1015.4
20260503230043 78 147 3.0 8.0 0.00 0.00 0.00 42 1015.3
20260503225519 78 146 3.0 11.0 0.00 0.00 0.00 40 1015.5
20260503225016 78 124 5.0 11.0 0.00 0.00 0.00 41 1015.5
20260503224540 78 158 6.0 12.0 0.00 0.00 0.00 38 1015.5
20260503224019 79 144 7.0 12.0 0.00 0.00 0.00 38 1015.5
20260503223522 79 145 6.0 15.0 0.00 0.00 0.00 37 1015.5
20260503223036 79 191 7.0 15.0 0.00 0.00 0.00 39 1015.6
20260503222516 80 164 6.0 15.0 0.00 0.00 0.00 39 1015.7
20260503222017 79 152 4.0 12.0 0.00 0.00 0.00 40 1015.6
20260503221543 80 128 5.0 16.0 0.00 0.00 0.00 38 1015.6
20260503221017 79 132 6.0 16.0 0.00 0.00 0.00 39 1015.7
20260503220517 79 144 7.0 15.0 0.00 0.00 0.00 38 1015.8
20260503220038 80 144 8.0 15.0 0.00 0.00 0.00 37 1015.9
20260503215518 80 126 6.0 13.0 0.00 0.00 0.00 41 1015.9
20260503215018 80 150 6.0 15.0 0.00 0.00 0.00 37 1016.0
20260503214546 80 146 6.0 15.0 0.00 0.00 0.00 41 1016.0
20260503214020 80 156 6.0 12.0 0.00 0.00 0.00 40 1016.1
20260503213518 80 142 6.0 11.0 0.00 0.00 0.00 38 1016.3
20260503213043 80 140 5.0 11.0 0.00 0.00 0.00 37 1016.3
20260503212517 80 132 5.0 13.0 0.00 0.00 0.00 38 1016.4
20260503212018 80 129 7.0 13.0 0.00 0.00 0.00 38 1016.5
20260503211535 81 163 4.0 16.0 0.00 0.00 0.00 38 1016.6
20260503211020 80 153 3.0 16.0 0.00 0.00 0.00 40 1016.6
20260503210519 80 117 4.0 14.0 0.00 0.00 0.00 42 1016.7
20260503210036 80 163 6.0 14.0 0.00 0.00 0.00 38 1016.9
20260503205519 80 145 4.0 12.0 0.00 0.00 0.00 40 1017.0
20260503205021 80 165 6.0 12.0 0.00 0.00 0.00 40 1017.1
20260503204539 80 140 4.0 12.0 0.00 0.00 0.00 41 1017.2
20260503204017 80 140 7.0 14.0 0.00 0.00 0.00 41 1017.4
20260503203521 80 112 7.0 14.0 0.00 0.00 0.00 42 1017.4
20260503203044 80 148 6.0 12.0 0.00 0.00 0.00 42 1017.6
20260503202523 80 152 5.0 12.0 0.00 0.00 0.00 40 1017.7
20260503202017 80 117 5.0 12.0 0.00 0.00 0.00 39 1017.8
20260503201544 80 155 4.0 12.0 0.00 0.00 0.00 41 1017.8
20260503201020 80 142 5.0 11.0 0.00 0.00 0.00 39 1018.0
20260503200517 80 140 4.0 11.0 0.00 0.00 0.00 40 1018.0
20260503200040 80 151 4.0 11.0 0.00 0.00 0.00 39 1017.9
20260503195519 80 166 3.0 15.0 0.00 0.00 0.00 42 1018.1
20260503195018 80 182 2.0 15.0 0.00 0.00 0.00 42 1018.2
20260503194540 80 161 6.0 15.0 0.00 0.00 0.00 42 1018.3
20260503194021 80 130 4.0 11.0 0.00 0.00 0.00 42 1018.4
20260503193519 80 150 2.0 11.0 0.00 0.00 0.00 43 1018.4
20260503193035 80 176 5.0 12.0 0.00 0.00 0.00 39 1018.6
20260503192517 80 143 3.0 12.0 0.00 0.00 0.00 43 1018.6
20260503192019 80 160 5.0 12.0 0.00 0.00 0.00 43 1018.7
20260503191540 80 178 4.0 11.0 0.00 0.00 0.00 45 1018.8
20260503191018 80 159 5.0 14.0 0.00 0.00 0.00 40 1018.8
20260503190521 80 213 3.0 14.0 0.00 0.00 0.00 45 1018.9
20260503190045 79 148 5.0 18.0 0.00 0.00 0.00 45 1018.9
20260503185520 79 150 5.0 18.0 0.00 0.00 0.00 43 1019.1
20260503185022 79 193 2.0 11.0 0.00 0.00 0.00 47 1019.1
20260503184538 80 215 5.0 10.0 0.00 0.00 0.00 44 1019.2
20260503184019 79 167 3.0 15.0 0.00 0.00 0.00 47 1019.3
20260503183520 79 180 7.0 15.0 0.00 0.00 0.00 45 1019.3
20260503183040 79 209 5.0 11.0 0.00 0.00 0.00 45 1019.3
20260503182520 80 190 1.0 8.0 0.00 0.00 0.00 50 1019.4
20260503182019 79 0 2.0 15.0 0.00 0.00 0.00 47 1019.5
20260503181557 79 137 4.0 15.0 0.00 0.00 0.00 47 1019.6
20260503181020 79 139 4.0 10.0 0.00 0.00 0.00 46 1019.6
20260503180520 79 156 4.0 10.0 0.00 0.00 0.00 48 1019.8
20260503180048 79 158 2.0 9.0 0.00 0.00 0.00 51 1019.8
20260503175524 79 125 3.0 9.0 0.00 0.00 0.00 48 1019.8
20260503175020 79 161 2.0 8.0 0.00 0.00 0.00 47 1020.0
20260503174537 79 146 1.0 9.0 0.00 0.00 0.00 49 1020.1
20260503174021 79 195 1.0 10.0 0.00 0.00 0.00 53 1020.1
20260503173520 78 143 3.0 10.0 0.00 0.00 0.00 49 1020.2
20260503173036 78 150 2.0 10.0 0.00 0.00 0.00 51 1020.2
20260503172518 78 157 3.0 10.0 0.00 0.00 0.00 50 1020.3
20260503172017 78 0 2.0 8.0 0.00 0.00 0.00 50 1020.4
20260503171534 78 215 2.0 8.0 0.00 0.00 0.00 52 1020.5
20260503171017 78 147 2.0 14.0 0.00 0.00 0.00 54 1020.5
20260503170522 77 172 2.0 15.0 0.00 0.00 0.00 52 1020.6
20260503150517 71 0 0.0 3.0 0.00 0.00 0.00 62 1021.3
20260503131020 57 0 0.0 0.0 0.00 0.00 0.00 82 1020.8
20260503130520 57 0 0.0 0.0 0.00 0.00 0.00 83 1020.7
20260503110523 50 0 0.0 0.0 0.00 0.00 0.00 85 1019.8